Florence, SC

4:58 AM EST on December 07, 2019 (GMT -0500)
Florence Regional

Weather History for KFLO - October, 2019

Change the Weather History Date:

Wednesday, October 16, 2019

  Actual Average Record
Temperature  
Mean Temperature 66 °F 64 °F  
Max Temperature 80 °F 75 °F 88 °F (2018)
Min Temperature 53 °F 53 °F 36 °F (1978)
Degree Days  
Heating Degree Days 0 3  
Month to date heating degree days 0 34  
Since 1 July heating degree days 0 43  
Cooling Degree Days 2 2  
Month to date cooling degree days 133 60  
Year to date cooling degree days 2611 2016  
Growing Degree Days 16 (Base 50)    
Moisture  
Dew Point 62 °F    
Average Humidity 84    
Maximum Humidity 100    
Minimum Humidity 37    
Precipitation  
Precipitation 0.51 in 0.10 in 0.96 in (1964)
Month to date precipitation 1.40 1.75  
Year to date precipitation 34.29 35.90  
Sea Level Pressure  
Sea Level Pressure 29.77 in    
Wind  
Wind Speed 5 mph ()    
Max Wind Speed 21 mph    
Max Gust Speed 39 mph    
Visibility 6.6 miles    
Events Rain    
T = Trace of Precipitation, MM = Missing Value Source: Averaged Metar Reports

Daily Weather History Graph

Daily Weather History Graph

Search for Another Location

Airport or City:

Astronomy

Oct. 16, 2019 Rise Set
Actual Time 7:24 AM EDT 6:43 PM EDT
Civil Twilight 6:59 AM EDT 7:08 PM EDT
Nautical Twilight 6:30 AM EDT 7:38 PM EDT
Astronomical Twilight 6:01 AM EDT 8:07 PM EDT
Moon 8:42 PM EDT (10/16) 9:48 AM EDT (10/16)
Length of Visible Light 12h 09m
Length of Day
11h 18m
Waning Gibbous, 93% of the Moon is Illuminated
Oct 16
Waning Gibbous
Oct 21
Last Quarter
Oct 27
New
Nov 4
First Quarter
Nov 12
Full

Hourly Weather History & Observations

Time (EDT) Temp. Dew Point Humidity Pressure Visibility Wind Dir Wind Speed Gust Speed Precip Events Conditions
12:53 AM 64.0 °F 59.0 °F 84% 29.95 in 10.0 mi East 5.8 mph - N/A   Partly Cloudy
1:53 AM 64.0 °F 59.0 °F 84% 29.95 in 10.0 mi ENE 3.5 mph - 0.00 in Rain Light Rain
2:53 AM 63.0 °F 60.1 °F 90% 29.92 in 10.0 mi East 3.5 mph - 0.01 in   Overcast
3:53 AM 63.0 °F 61.0 °F 93% 29.88 in 8.0 mi ESE 3.5 mph - 0.01 in Rain Light Rain
4:34 AM 63.0 °F 62.1 °F 97% 29.87 in 4.0 mi SE 4.6 mph - 0.05 in Rain Light Rain
4:46 AM 64.0 °F 62.1 °F 93% 29.87 in 3.0 mi SSE 5.8 mph - 0.08 in Rain Rain
4:53 AM 64.0 °F 62.1 °F 93% 29.86 in 4.0 mi SSE 4.6 mph - 0.09 in Rain Rain
5:11 AM 64.0 °F 63.0 °F 96% 29.87 in 1.8 mi SSW 3.5 mph - 0.08 in Rain Heavy Rain
5:19 AM 64.9 °F 63.0 °F 93% 29.86 in 2.0 mi Calm Calm - 0.11 in Rain Rain
5:26 AM 64.9 °F 63.0 °F 93% 29.86 in 4.0 mi Calm Calm - 0.11 in Rain Light Rain
5:39 AM 64.9 °F 64.0 °F 97% 29.85 in 4.0 mi Calm Calm - 0.13 in Rain Rain
5:53 AM 64.9 °F 64.0 °F 97% 29.84 in 2.0 mi Calm Calm - 0.20 in Rain Heavy Rain
6:12 AM 64.9 °F 64.0 °F 97% 29.83 in 3.0 mi East 4.6 mph - 0.04 in Rain Rain
6:17 AM 64.9 °F 64.0 °F 97% 29.83 in 2.5 mi ESE 4.6 mph - 0.05 in Rain Rain
6:30 AM 64.9 °F 63.0 °F 93% 29.82 in 5.0 mi East 5.8 mph - 0.07 in Rain Light Rain
6:53 AM 64.9 °F 64.0 °F 97% 29.80 in 3.0 mi SE 5.8 mph - 0.10 in Rain Light Rain
7:00 AM 64.9 °F 64.0 °F 97% 29.80 in 2.5 mi SE 5.8 mph - 0.02 in Rain Rain
7:07 AM 64.9 °F 64.0 °F 97% 29.80 in 3.0 mi SE 4.6 mph - 0.03 in Rain Light Rain
7:15 AM 64.9 °F 64.0 °F 97% 29.79 in 2.0 mi SSE 3.5 mph - 0.04 in Rain Light Rain
7:20 AM 64.9 °F 64.0 °F 97% 29.79 in 3.0 mi SE 4.6 mph - 0.04 in Rain Light Rain
7:53 AM 66.0 °F 64.9 °F 96% 29.77 in 8.0 mi SSE 3.5 mph - 0.04 in   Overcast
8:43 AM 68.0 °F 66.0 °F 93% 29.76 in 10.0 mi South 5.8 mph - 0.00 in   Overcast
8:53 AM 68.0 °F 66.0 °F 93% 29.76 in 10.0 mi SSW 5.8 mph - 0.00 in   Overcast
9:48 AM 69.8 °F 66.2 °F 88% 29.74 in 1.8 mi SSW 5.8 mph - 0.05 in Rain Heavy Rain
9:53 AM 69.1 °F 66.9 °F 93% 29.74 in 1.5 mi SSW 5.8 mph - 0.05 in Rain Light Rain
9:56 AM 69.1 °F 66.9 °F 93% 29.74 in 3.0 mi SSW 5.8 mph - 0.00 in Rain Light Rain
10:30 AM 69.1 °F 68.0 °F 96% 29.73 in 3.0 mi SSW 6.9 mph - 0.01 in Rain Light Rain
10:37 AM 70.0 °F 68.0 °F 93% 29.72 in 4.0 mi SSW 8.1 mph - 0.01 in Rain Light Rain
10:53 AM 70.0 °F 68.0 °F 93% 29.71 in 4.0 mi SSW 9.2 mph - 0.01 in   Overcast
11:16 AM 71.1 °F 69.1 °F 93% 29.70 in 10.0 mi SSW 8.1 mph - N/A   Overcast
11:53 AM 72.0 °F 68.0 °F 87% 29.68 in 10.0 mi SW 9.2 mph - N/A   Overcast
12:53 PM 75.0 °F 69.1 °F 82% 29.65 in 10.0 mi WSW 12.7 mph 20.7 mph N/A   Overcast
1:00 PM 75.0 °F 68.0 °F 79% 29.65 in 10.0 mi WSW 16.1 mph 24.2 mph N/A   Mostly Cloudy
1:53 PM 77.0 °F 66.0 °F 69% 29.64 in 10.0 mi West 15.0 mph - N/A   Mostly Cloudy
2:00 PM 75.9 °F 66.0 °F 71% 29.65 in 10.0 mi West 16.1 mph 25.3 mph N/A   Overcast
2:53 PM 77.0 °F 64.0 °F 64% 29.64 in 10.0 mi West 16.1 mph 26.5 mph N/A   Mostly Cloudy
3:00 PM 77.0 °F 64.0 °F 64% 29.64 in 10.0 mi WNW 16.1 mph 24.2 mph N/A   Mostly Cloudy
3:53 PM 77.0 °F 62.1 °F 60% 29.65 in 10.0 mi WNW 17.3 mph 25.3 mph N/A   Scattered Clouds
4:53 PM 73.9 °F 60.1 °F 62% 29.67 in 10.0 mi WNW 15.0 mph - N/A   Clear
5:53 PM 72.0 °F 61.0 °F 68% 29.68 in 10.0 mi WNW 12.7 mph - N/A   Clear
6:53 PM 70.0 °F 61.0 °F 73% 29.68 in 10.0 mi West 4.6 mph - N/A   Clear
7:53 PM 66.9 °F 62.1 °F 84% 29.70 in 10.0 mi WNW 3.5 mph - N/A   Partly Cloudy
8:53 PM 70.0 °F 57.0 °F 63% 29.73 in 10.0 mi NW 10.4 mph - N/A   Mostly Cloudy
9:53 PM 66.0 °F 39.9 °F 38% 29.78 in 10.0 mi NW 13.8 mph 24.2 mph N/A   Partly Cloudy
10:53 PM 61.0 °F 39.0 °F 44% 29.81 in 10.0 mi NNW 6.9 mph - N/A   Partly Cloudy
11:53 PM 59.0 °F 39.9 °F 49% 29.83 in 10.0 mi NW 4.6 mph - N/A   Clear